Location: Newark
(48.3831°N, 4.1956°E)
Time: 12:46:49
(UTC+00:00)

Envisat - Pass Details

Date: 17 November 2019
Orbit: 764 x 766 km, 98.1° (Epoch: 14 December)

Event Time Altitude Azimuth Distance (km) Brightness Sun altitude
Rises 16:51:04 0° 143° (SE) 3,223 6.0 -8.2°
Reaches altitude 10° 16:53:28 10° 136° (SE) 2,301 5.2 -8.6°
Maximum altitude 16:58:12 41° 67° (ENE) 1,105 3.4 -9.3°
Drops below altitude 10° 17:02:57 10° 359° (N) 2,315 5.3 -10.1°
Sets 17:05:22 0° 352° (N) 3,246 6.2 -10.4°
